GFSSGP_con_mucape_132.txt.gz
CAPE
1699 882 733 215 490 542 0 2 2 3 37 119 355 460 546 506 175 13 95 15 428 697 734 751 1081 1120 794 958 1409 1592 1690 1517 1718 1884 2263 2491 2780 2767 2142 1998 2200 2036 1719 1327 1417 1759 1882 1649 1372
1741 1113 80 249 43 0 8 44 84 25 103 149 211 345 385 445 444 116 173 307 409 860 815 838 1445 1045 1031 818 1553 1860 1498 1596 1965 2233 2420 2480 2711 2835 2103 1831 2047 2034 1223 1197 1175 1167 1399 1442 1314
1486 1087 41 117 137 39 94 214 236 66 84 129 250 343 442 502 472 306 70 195 398 659 851 713 1333 1091 999 1125 1589 2050 2237 1855 2322 2541 2543 2589 2662 2496 1834 1523 1505 1576 1523 1184 1106 811 1162 1527 1477
278 411 120 87 56 149 59 43 218 156 110 162 339 402 466 511 380 378 103 33 321 923 1200 1800 2080 1541 1149 979 1945 2479 2301 2455 2561 2673 2494 2708 2530 2270 1971 1818 1733 1726 1649 1473 1143 717 747 1272 1257
273 128 13 81 142 196 90 115 252 273 163 395 447 596 478 370 347 333 84 21 331 1020 1615 1922 2338 2255 2396 2204 2195 2798 2315 2597 2872 2577 2473 2605 2672 2278 2142 1739 1779 1566 1676 1648 1372 837 869 1157 1333
122 518 221 155 170 280 183 210 301 118 241 372 682 559 398 396 319 222 126 185 715 1250 1680 2091 2705 2678 2395 2103 2226 2261 2363 2609 2893 2923 2796 2599 2149 1997 2103 2096 1766 1683 1697 1552 1707 1129 745 1281 1269
286 165 274 365 315 97 204 205 450 206 304 336 420 528 496 487 414 454 696 743 886 1348 1568 1716 2251 2174 2299 2207 2253 2935 2891 2943 2993 2858 3014 2550 2092 1917 1813 1707 1823 1507 1452 1671 1615 1285 910 661 835
676 408 424 436 107 68 200 231 281 168 342 372 426 530 525 598 409 1059 1188 997 883 1207 1722 2000 1889 1995 2181 2183 2912 3086 2937 2889 2611 2345 1936 1965 1887 1816 1898 2492 2397 1497 1636 1401 1380 1294 1218 899 933
493 549 484 156 47 22 26 47 98 276 308 503 566 419 371 349 923 1050 1060 1135 1153 1503 1708 2046 1961 2188 2340 2132 2205 3044 2887 2710 2513 1780 1888 2466 1536 1681 1621 1693 1809 1712 1405 1655 1746 1279 1175 1406 1265
75 53 67 1 3 6 0 17 83 282 573 781 258 332 410 702 756 845 915 1084 1227 1273 1413 1699 1870 2072 2292 2263 2276 2419 1992 2050 1958 1975 1863 1763 1392 1586 1366 1853 1826 1796 1555 1555 1597 1399 1107 1180 925
0 8 3 0 0 0 0 0 624 522 694 704 186 273 379 521 620 679 762 725 939 1026 1205 1320 1426 1547 1809 1781 1867 1835 1922 1992 1859 1734 1596 1549 1185 1115 1355 1423 1563 1433 1632 1387 1719 1593 1008 998 1063
0 0 0 0 0 0 0 0 168 874 680 437 198 217 319 604 489 466 591 710 659 756 966 1122 1225 1393 1712 1591 1770 1601 1777 1881 1660 1670 1304 1333 1088 1043 1092 1163 1364 1110 1350 1134 1401 1193 973 472 603
0 0 0 0 0 0 0 0 0 261 633 293 173 183 196 513 665 629 735 645 542 476 665 931 1134 1373 1547 1495 1453 1474 1611 1811 1534 1598 1372 1195 1021 823 735 1083 1173 1015 1065 1055 958 871 713 496 253
0 0 0 0 0 0 0 0 0 538 491 322 167 137 134 135 552 758 802 820 702 655 781 723 977 1160 1348 1507 1223 1296 1250 1205 1177 1510 1416 1546 1095 836 838 889 1026 1094 1075 992 967 963 650 573 277
0 0 0 0 0 0 0 0 0 438 585 328 146 80 135 191 220 316 651 974 953 869 959 973 1038 1106 1010 1587 1332 871 908 1235 1377 1461 1565 1516 1473 924 1042 1031 817 1211 1042 1043 956 515 608 531 449
0 0 0 0 0 0 0 0 0 379 489 526 334 267 341 421 580 497 600 750 928 879 1271 1443 1511 1438 1232 1736 1596 1363 1240 1464 1265 1265 1572 1511 1651 1303 1307 1136 1001 815 548 616 712 386 704 633 427
0 0 0 0 0 0 0 0 0 0 304 418 684 563 588 688 966 849 876 778 613 1021 1461 1550 1561 1554 1552 1775 1826 1725 1438 1514 1568 1426 1582 1443 1409 1553 1259 1205 1057 598 546 627 610 479 554 693 287
0 0 0 0 0 0 0 0 0 0 6 521 485 763 891 1031 1065 1058 869 739 689 1425 1555 1557 1557 1658 1749 1535 2167 1930 1751 1248 1561 1714 1827 1736 1254 1215 1202 1046 947 803 925 771 670 536 456 575 589
0 0 0 0 0 0 0 0 0 0 548 654 852 887 953 1158 1215 1009 1090 940 790 1078 1706 1754 1697 1750 1872 1624 1826 1540 1357 1371 1360 1343 1718 1787 1354 1189 1113 1055 1133 954 987 1080 883 532 642 478 409
0 0 0 0 0 0 0 0 0 24 268 984 1177 1028 1126 1317 1221 1191 1254 1170 1155 948 1562 1823 1738 1743 2049 1798 1693 1444 1326 1236 1341 1440 1403 1738 1684 1679 1303 1180 1145 1166 1162 1419 1228 1072 1013 477 431
0 0 0 0 0 0 0 0 0 263 873 1399 1496 1629 1741 1821 1719 1615 1532 1499 1527 1230 1657 1858 1866 1763 1895 1716 1679 1709 1594 1537 1341 1321 1499 1529 1713 1628 1755 1421 1224 1368 1404 1141 994 1189 926 614 720
0 0 0 0 0 0 0 0 0 252 1174 1560 1870 1921 1923 1915 2026 2120 2000 1863 1745 1843 1567 1927 1834 1678 1639 1986 1857 1803 1706 1669 1653 1576 1316 1383 1842 1919 1775 1546 1401 1263 1419 960 1019 1077 1183 885 840
0 0 0 0 0 0 0 0 0 40 658 1569 1944 1911 1867 1850 1892 2015 2118 2077 1968 2012 2210 1846 2436 2091 1998 1990 2302 2133 1959 1903 1883 1975 2044 1884 1657 2049 1986 1758 1535 1296 985 969 865 1215 1280 1261 1044
0 0 0 0 0 0 0 0 0 2 153 427 872 1550 1903 1947 1942 1886 2410 2350 2352 2539 2712 2628 2681 2800 2492 2448 2422 2401 2465 2427 2336 2283 2140 2132 2184 2131 2110 1959 1796 1641 1520 1314 1179 1161 1436 1546 1588
0 0 0 0 0 0 0 0 0 0 31 149 370 847 1229 1658 1797 1884 1636 2040 2209 2280 2659 3079 2658 2648 2860 3037 2863 2678 2592 2644 2679 2669 2519 2470 2332 2170 2149 1989 1921 1766 1641 1569 1455 1414 1471 1588 1713
0 0 0 0 0 0 0 0 0 0 82 250 328 448 754 850 773 924 890 882 815 822 904 1191 2172 1999 2390 3133 3341 3270 3100 2809 2705 2736 2800 2723 2498 2480 2373 2045 1814 1766 1505 1398 1428 1403 1296 1530 1702
0 0 0 0 0 0 0 1 1 100 207 124 266 375 477 582 820 933 881 925 940 895 796 820 881 872 1043 1236 1334 1526 2127 2463 2588 2478 2425 2489 2592 2564 2572 2362 2135 1947 1932 2027 1428 1472 1318 1207 1495
0 0 0 0 0 0 0 0 4 21 18 21 173 540 716 849 895 965 841 741 641 638 681 752 814 1044 1150 1295 1386 1524 1732 2049 2219 2208 2160 2129 2324 2387 2332 2454 2446 2419 2244 2059 1738 1563 1647 1621 1433
0 0 0 0 0 0 0 1 1 8 0 19 28 12 2 9 81 216 292 398 446 421 354 292 359 494 826 1154 1413 1457 1595 1424 1551 1684 1669 1783 1819 1998 2239 2373 2442 2403 2343 2496 2242 1731 1643 1629 1692
0 0 0 0 0 0 0 0 20 1 3 0 1 4 51 68 93 122 152 181 181 182 246 382 455 552 815 722 870 918 1116 969 890 880 1052 1181 1328 1588 1773 1967 2175 2269 2042 2129 2025 1612 1723 1719 1767

GFSSGP_con_mucape_135.txt.gz
CAPE
1109 1326 1264 220 6 2 0 0 2 0 7 235 347 523 423 351 157 1 36 144 372 539 766 655 1296 1273 1236 1197 1239 1554 1925 1919 2140 1950 2342 2547 2641 1633 1892 2166 1882 1443 1704 1757 1630 1525 1649 1103 785
1665 860 70 50 5 3 23 42 75 29 92 126 237 295 418 497 134 136 73 399 497 617 635 776 1685 1612 1309 1703 1587 1521 1490 1675 1931 2236 2541 2855 2567 2120 1969 1517 1410 1384 1327 1362 1672 1592 1125 1108 1266
1068 1189 14 57 76 2 26 125 115 76 75 81 249 370 428 380 57 104 241 604 750 599 689 950 1388 1058 1510 1773 2316 1526 1297 1688 1915 2552 2652 2744 2338 1849 1896 1668 1442 1295 1222 1134 1227 1418 1545 1331 1101
1168 90 63 61 66 76 52 73 153 73 87 202 391 490 429 545 286 191 376 677 735 676 603 1206 1452 1199 1437 1817 1958 2402 1974 2006 2208 2607 2615 2235 2280 1823 1554 1620 1740 1656 1385 1154 651 1077 1358 1449 1291
54 0 9 24 121 97 116 45 143 121 349 446 448 501 454 447 483 195 331 439 758 850 682 840 1861 1430 1696 2408 2632 2465 2578 2774 2569 2543 2473 2371 2182 2129 1939 1798 1877 1634 1795 1434 889 863 1230 1036 1082
45 69 14 37 100 290 84 79 234 118 371 513 569 436 448 422 291 106 122 396 974 1227 916 1116 2167 2319 2302 2279 1977 2111 2150 2427 2527 2446 2378 2611 2093 2001 1933 1717 1618 1765 1605 1665 1376 843 1244 1357 1232
321 302 242 154 204 174 102 74 223 242 380 518 514 406 489 417 201 12 75 539 1264 1579 1656 1510 1439 1884 2216 2491 2547 2867 3031 2993 2681 2852 2904 2507 1961 1957 2212 1850 1720 1554 1677 1804 1573 1345 799 1177 1066
436 447 390 433 171 83 144 77 227 227 294 459 410 425 464 382 189 175 436 778 1253 1621 1930 2131 1927 1741 1864 2010 3043 3081 3231 3151 3053 2653 1899 1843 1725 1673 1634 2083 2164 1495 1439 1608 1468 1254 1192 897 920
431 391 389 434 100 2 93 84 179 194 406 430 458 418 457 420 549 847 755 816 1100 1382 1769 1936 2022 2008 1812 1832 2264 3101 2786 2422 2151 1930 2029 2384 1557 1604 1668 1958 1769 1755 1620 1618 1527 1357 1241 1303 1157
310 279 258 303 31 14 78 58 66 291 370 445 420 509 546 703 1031 965 801 775 862 1342 1793 1782 1801 2070 1953 2040 1979 2390 2085 1965 1885 1482 1611 1790 1514 1572 1625 1636 1888 1741 1628 1491 1744 1566 1274 1061 862
190 11 0 0 0 0 12 1 115 261 342 488 364 460 696 960 1017 989 924 790 835 1202 1550 1706 1823 1886 1971 1942 1940 2129 1942 1942 1899 1763 1512 1672 1480 1782 1674 1726 1625 1637 1794 1377 1677 1526 1244 594 800
0 0 0 0 0 0 0 17 269 270 466 551 361 375 717 768 864 920 878 771 861 1023 1248 1584 1747 1763 1953 1758 2177 1864 1932 2002 2049 1972 1767 1822 1355 1100 1104 1251 1416 1449 1529 1442 1335 1303 1121 633 312
0 0 0 0 0 0 0 558 412 388 712 487 332 500 514 556 642 751 640 696 833 840 969 1302 1442 1491 1754 1576 1741 1677 1831 1884 1806 1723 1690 1550 1195 932 1099 1102 1239 1361 1062 1302 1013 1171 687 599 396
0 0 0 0 0 0 0 0 154 522 689 272 261 367 359 398 466 558 439 646 568 578 786 926 1060 1158 1355 1454 1590 1321 1429 1652 1584 1519 1522 1319 1194 992 1035 995 1081 1302 995 942 974 825 716 577 495
0 0 0 0 0 0 0 0 104 541 627 220 215 323 398 334 315 376 399 646 417 295 519 740 935 1125 1196 1437 1238 1049 1116 1314 1510 1351 1391 1452 1284 1023 997 884 1113 1154 1004 944 963 789 747 698 705
0 0 0 0 0 0 0 0 308 582 523 305 231 202 273 527 411 416 514 711 515 423 618 856 868 1045 1172 1405 1419 1009 1033 1106 1070 1096 1259 1498 1509 1502 1267 1020 1010 841 1049 1174 1058 967 849 473 464
0 0 0 0 0 0 0 0 362 540 566 379 266 224 290 715 630 647 685 769 677 631 701 925 888 1017 981 1170 1487 1391 989 964 1039 1097 1148 1365 1506 1624 1599 1119 1101 1092 942 843 671 630 579 451 550
0 0 0 0 0 0 0 0 318 442 593 416 349 298 499 725 895 712 732 809 873 876 974 1036 1182 1133 1147 1167 1511 1613 1560 1344 1313 1411 1342 1344 1293 1422 1585 1519 1234 1113 1001 570 501 585 509 427 528
0 0 0 0 0 0 0 0 0 288 547 436 474 610 714 895 1055 901 801 830 917 921 1125 1356 1432 1388 1358 1343 1499 1650 1746 1721 1560 1421 1569 1674 1644 1398 1352 1255 1283 1019 883 837 692 610 583 467 425
0 0 0 0 0 0 0 0 0 30 335 386 441 698 821 1112 1140 1120 903 966 924 1310 1314 1374 1415 1478 1532 1307 1296 1705 1844 1864 1634 1235 1318 1631 1719 1702 1710 1235 922 883 933 1023 775 900 882 568 505
0 0 0 0 0 0 0 0 109 353 794 552 528 647 822 1094 1065 1185 1070 1047 951 1226 1536 1618 1526 1553 1642 1587 1420 1529 1772 1505 1275 1198 1312 1399 1611 1719 1695 1505 1304 1285 1079 1024 995 1097 1250 900 902
0 0 0 0 0 0 0 0 97 680 1137 1292 1022 925 1053 1153 1266 1260 1279 1181 1375 1173 1330 1697 1801 1717 1741 1790 1735 1544 1549 1477 1487 1402 1188 1149 1347 1547 1614 1658 1524 1352 1241 1086 1043 958 1077 816 872
0 0 0 0 0 0 0 0 0 775 1252 1514 1578 1536 1559 1565 1619 1729 1801 1764 1708 1508 1458 1840 1912 1890 1852 1905 2046 1988 1677 1647 1630 1730 1728 1737 1707 1602 1685 1632 1620 1571 1525 1314 1182 1157 1033 806 826
0 0 0 0 0 0 0 0 0 749 1158 1670 1823 1943 2040 2064 2093 2153 2138 2079 1964 1795 1889 2059 2150 1938 1909 2074 1956 2108 1981 2019 2025 2219 2283 2100 2033 2007 1984 1994 1913 1581 1497 1413 1347 1261 1033 812 852
0 0 0 0 0 0 0 0 0 159 885 1688 2008 2023 1912 1984 2154 2232 2205 2189 2165 2312 2492 2234 2288 2316 2149 2168 2073 2091 2240 2340 2560 2557 2595 2519 2586 2469 2304 2231 2156 2053 1644 1494 1300 1167 1021 972 945
0 0 0 0 0 0 0 0 0 0 280 1536 1961 1989 1998 1938 2144 2254 2297 2315 2308 2280 2417 2553 2363 2335 2529 2681 2680 2697 2719 2711 2819 2870 2773 2614 2514 2431 2304 2173 2165 2277 2182 2033 1473 1182 1076 998 934
0 0 0 0 0 0 0 0 10 0 42 737 1132 1303 1681 1794 1832 1595 2185 2365 2328 2374 2385 2410 2467 2398 2308 2514 2664 2825 3020 3070 2754 2399 2385 2454 2368 2274 2130 2010 2042 1973 2060 1983 1982 1754 1179 957 1097
0 0 0 0 0 0 0 0 1 54 131 325 452 675 1083 1071 871 911 975 1001 938 958 982 928 956 1089 981 990 1126 1192 1189 1321 1612 1898 2011 1811 1863 2043 2218 2293 2207 2021 1906 1913 1804 1613 1480 1228 1072
0 0 0 0 0 0 0 0 0 87 229 313 380 529 744 702 865 1005 1012 1051 1053 974 746 762 662 591 655 825 1041 1215 1284 1253 1204 1143 1163 1188 1250 1360 1482 1648 1828 1892 1926 1859 1609 1501 1504 1465 1319
0 0 0 0 0 0 0 0 0 0 27 35 139 452 637 802 960 1035 995 863 805 680 381 215 296 346 611 520 523 644 665 670 560 496 394 409 491 643 987 1344 1500 1481 1760 1835 1746 1482 1642 1601 1627

GFSSGP_con_mucape_138.txt.gz
CAPE
826 1059 1525 365 3 0 0 0 0 0 0 192 285 240 299 196 54 0 0 116 352 421 376 770 1512 1089 1010 1026 1385 1652 2430 2164 2390 2374 2507 2245 1759 1891 1948 1810 1832 1605 1582 1500 1460 1615 1572 765 610
1114 1044 299 72 0 0 0 29 16 0 47 89 176 285 356 413 15 3 125 310 459 436 370 455 1442 1522 1262 1215 1760 2402 2218 2206 2472 2619 2590 2177 1765 2467 2217 1527 1442 1512 1580 1336 1301 1221 814 752 944
1030 632 85 57 1 0 2 38 26 51 76 26 198 275 387 58 24 6 213 460 500 441 482 731 1540 1224 1448 1476 1615 2218 2381 2308 2526 2481 2339 1970 1898 2575 1525 1350 1307 1222 1235 1319 1114 715 967 1125 1304
1070 309 80 38 12 29 19 39 34 61 129 233 333 358 356 271 117 218 528 578 470 554 584 1012 1563 1698 1674 1493 1706 1866 2246 2162 2550 2689 2510 1828 1890 1696 1647 1723 1551 1282 976 892 1229 1204 1022 771 947
144 15 19 7 0 38 64 45 105 65 331 486 350 351 333 328 309 444 635 614 528 491 550 1111 1815 1835 1822 2011 2301 2407 2253 2328 2740 2710 2268 2307 2012 1832 1862 1903 1837 1722 1277 776 935 1158 1206 1092 934
186 52 9 33 48 62 38 19 105 252 357 346 403 353 354 387 253 397 465 641 651 495 548 982 1854 2123 2645 2481 2303 2596 2244 2298 2611 2409 2067 1958 1956 1936 1818 1691 1632 1672 1777 1151 895 1118 1082 880 999
356 369 297 216 153 134 59 40 105 229 352 431 370 385 388 401 162 280 401 888 961 827 658 855 1165 1761 1894 2619 2755 2642 2717 2555 2794 2710 2821 2458 1667 1861 1913 1762 1845 1722 1538 1797 1093 1056 1326 1243 1040
371 388 336 342 215 155 72 70 132 218 230 343 317 360 440 238 71 154 555 977 1128 1061 954 892 995 1520 1573 1685 2480 3082 2909 2903 2308 2184 1826 1779 1852 1865 2018 2114 2041 1383 1673 1682 1306 1121 752 985 864
322 327 339 379 302 51 73 61 132 97 289 388 333 357 372 230 107 362 647 1035 1117 1124 1164 1338 1450 1585 1729 1978 2034 3225 2831 2361 1895 1649 1354 2142 1349 1463 1618 1710 1454 1554 1542 1477 1389 1247 1216 996 939
164 121 52 324 226 6 72 107 68 108 266 304 413 398 340 151 472 423 491 747 1003 1226 1480 1606 1889 1828 1841 2079 1848 2388 2194 1792 1604 1314 1646 1733 1581 1570 1677 1911 1904 1643 1608 1493 1695 1615 1237 1140 825
87 0 0 0 0 0 50 87 105 163 214 260 431 406 288 533 535 498 429 579 712 1137 1519 1673 1954 1921 1863 1997 2021 2168 2061 1951 1792 1432 1506 1668 1478 1729 1859 1566 1333 1605 1794 1403 1578 1486 1274 583 669
0 0 0 0 0 2 59 34 90 166 186 248 451 402 431 704 670 621 536 525 580 1152 1455 1563 1732 1920 1902 1780 1941 2038 1922 1878 1788 1646 1526 1663 1553 1503 1568 1450 1515 1585 1538 1674 1221 1462 1059 709 354
0 0 0 0 0 0 11 18 164 200 611 425 417 514 725 771 766 758 670 543 631 895 1249 1501 1665 1716 1775 1691 1777 1689 1687 1812 1820 1825 1913 1802 1755 1408 1097 1047 1058 1318 1402 1269 1301 1059 996 572 510
0 0 0 0 0 0 26 201 300 238 496 460 434 602 695 739 782 814 772 577 704 714 962 1307 1522 1558 1648 1548 1653 1875 1699 1788 1819 1789 1828 1754 1666 1391 907 982 1184 1098 1335 1066 1013 817 742 563 490
0 0 0 0 0 0 0 112 277 336 563 332 469 537 565 576 660 719 735 569 590 608 752 1024 1264 1328 1460 1583 1427 1474 1328 1580 1651 1487 1417 1510 1517 1210 1009 1048 1036 1049 1142 1158 838 847 734 719 630
0 0 0 0 0 0 0 0 290 399 695 362 484 470 504 470 508 570 619 534 462 455 617 797 992 1098 1219 1309 1347 1245 1145 1035 1125 1270 1344 1249 1338 1366 1262 1050 1117 896 1211 949 937 1015 985 937 692
0 0 0 0 0 0 0 0 296 549 734 379 413 504 485 397 380 413 502 497 620 261 385 614 789 849 917 1020 1195 1185 886 774 859 951 955 1005 1253 1351 1348 1311 1376 997 1004 1010 1009 978 844 577 503
0 0 0 0 0 0 0 0 365 546 680 454 397 381 513 614 574 494 335 573 558 584 364 545 804 797 817 853 1209 1323 1338 1126 816 872 876 1019 1131 1387 1437 1409 1408 1285 1104 1094 878 780 550 435 397
0 0 0 0 0 0 0 0 389 547 599 579 438 413 525 878 725 628 578 655 716 740 588 579 677 822 854 841 1083 1248 1237 1336 1356 1283 1205 1288 1277 1223 1286 1373 1295 1270 1318 1017 887 686 515 454 419
0 0 0 0 0 0 0 0 0 518 579 646 554 490 615 997 965 819 717 712 782 841 770 853 957 1013 994 932 1066 1181 1311 1394 1477 1542 1480 1453 1539 1604 1592 1476 1328 1331 1078 973 796 801 530 451 468
0 0 0 0 0 0 0 0 0 313 496 620 660 584 626 971 1069 1048 857 820 857 762 836 1004 1084 1201 1254 1238 1167 1233 1348 1439 1605 1695 1656 1546 1370 1495 1531 1521 1514 1479 1328 1190 1097 845 849 736 675
0 0 0 0 0 0 0 0 54 204 674 815 530 602 613 907 1071 1159 1101 985 972 949 1121 1102 1179 1270 1393 1475 1483 1356 1278 1196 1331 1547 1439 1135 1221 1386 1504 1536 1555 1498 1406 1287 1169 1148 962 884 870
0 0 0 0 0 0 0 0 0 155 762 1116 741 511 571 797 1082 1160 1246 1217 1009 941 1166 1414 1564 1504 1426 1552 1619 1564 1502 1294 1522 1579 1520 1594 1958 1782 1607 1622 1600 1380 1280 1267 1250 1075 1093 1004 960
0 0 0 0 0 0 0 0 0 121 504 1039 1204 1054 1012 983 1241 1352 1536 1580 1346 1358 1301 1517 1615 1655 1670 1676 1724 1789 1753 1824 1908 1691 1624 1817 2018 2012 2001 2029 1957 1914 1911 1545 1343 1230 1020 931 945
0 0 0 0 0 0 0 0 0 0 456 1148 1455 1440 1423 1446 1495 1634 1742 1729 1751 1666 1597 1656 1650 1557 1675 1756 1766 1740 1801 1794 1806 1939 2078 2328 2401 2456 2424 2160 2028 1968 2023 1937 1826 1363 1094 918 917
0 0 0 0 0 0 0 0 0 0 93 1308 1675 1705 1748 1901 2009 1878 1990 1989 1908 1865 1905 1830 1845 1880 1905 1832 1717 1713 1885 1985 2052 2149 2201 2350 2439 2320 2216 2133 2004 1865 1738 1750 1686 1652 1546 1016 670
0 0 0 0 0 0 0 0 0 0 297 1474 1998 2129 2149 2096 2053 2093 2098 2096 2068 2066 2007 2173 2136 1908 1838 2088 2295 2444 2520 2573 2552 2472 2387 2217 2082 2073 2011 1949 1888 1811 1819 1839 1708 1580 1393 1221 934
0 0 0 0 0 0 0 0 0 0 394 1490 1988 1980 1941 2007 2087 2100 2108 2197 2197 2164 2142 2202 2384 2303 1999 1715 1277 1167 1067 1080 1149 1290 1440 1517 1592 1503 1705 1881 1912 1808 1770 1674 1568 1599 1554 1242 1048
0 0 0 0 0 0 0 0 0 0 96 1462 1836 1819 1856 1861 1791 1680 1871 1989 1999 1875 1729 1216 901 847 872 643 572 712 760 751 743 884 881 808 744 664 699 834 1192 1478 1731 1599 1470 1498 1498 1352 1235
0 0 0 0 0 0 0 0 0 0 19 415 1254 1020 1152 1522 1024 785 858 940 904 915 970 823 666 610 232 396 426 299 282 326 375 382 342 280 119 173 317 463 616 947 1397 1721 1514 1348 1680 1456 1436

GFSSGP_con_mucape_144.txt.gz
CAPE
578 1567 1289 1175 913 10 5 18 4 0 25 442 449 473 486 469 497 400 231 577 576 827 833 830 1392 1017 1324 1842 1745 2353 2652 2672 2676 2674 2769 2542 2564 2373 1768 1812 1790 2334 1919 1960 1552 1105 650 1081 1202
1090 1329 1004 974 107 8 13 6 102 25 0 23 99 195 249 343 144 252 517 517 532 796 751 1119 1181 1311 1184 1798 2145 2456 2824 2686 2764 2667 2781 2851 2836 2597 1907 1789 1712 1928 1719 1391 910 743 1032 1497 1496
1356 1025 1156 326 29 14 8 112 259 98 23 6 198 431 385 190 205 370 607 672 732 731 614 1269 1212 1635 698 1373 2316 2778 2845 2473 2251 3040 2911 2755 2600 2332 1558 1826 1662 1629 1281 836 800 1065 891 1030 1251
1518 1306 788 100 30 176 129 169 88 83 12 136 251 427 457 443 400 633 682 692 713 772 674 1201 1013 755 754 1905 2626 2709 2884 2574 2631 2915 2857 2476 1979 1536 1253 1282 1508 1542 1285 934 1087 1320 1395 1247 1379
694 507 172 77 56 188 250 218 257 36 102 125 252 491 644 709 720 700 635 668 864 663 500 741 1249 1055 1245 1853 2707 2719 2990 2863 2426 2983 2470 2339 2091 1948 1724 1229 883 1249 1489 1363 976 1165 1197 1020 857
1083 904 108 93 83 264 251 262 131 17 60 329 500 553 728 595 720 750 616 532 768 893 542 474 591 829 824 1574 2021 2712 2763 2076 2386 2232 1985 2139 2033 1845 1767 1678 1419 903 1168 1430 1394 1281 1070 1047 919
532 475 497 229 146 158 339 286 274 226 5 54 218 647 557 592 735 806 696 742 601 919 951 1079 573 670 634 662 1595 1975 2332 2347 2695 2238 1916 1705 1769 1626 1758 1921 1666 1658 924 1139 1287 1190 1020 1081 814
436 461 51 64 104 180 447 406 479 397 240 348 296 392 663 760 785 823 578 702 942 194 610 937 881 887 841 1035 1058 1974 2516 2551 1545 1520 1494 1484 1904 1896 1455 1910 1787 1697 1669 1116 927 1103 1237 1101 773
512 31 3 14 36 114 463 475 542 539 672 700 271 368 594 535 646 807 710 845 1037 773 272 721 565 504 1366 1697 1751 2532 2118 2054 1592 1385 1342 1322 561 843 1303 1247 1306 1535 1478 1285 1197 988 842 773 715
7 0 0 0 0 27 225 358 578 662 850 566 605 601 500 440 600 701 839 923 1042 758 591 74 195 584 335 1135 2288 2463 1284 312 1107 829 766 582 925 1378 1365 1187 1518 1489 1353 1441 1654 1377 1155 449 327
0 0 0 0 0 1 245 466 489 476 527 595 594 589 441 410 563 620 952 873 918 820 499 740 731 286 346 339 1900 2077 2276 2115 1350 1490 1150 1156 1128 1297 974 949 814 920 1543 1135 1072 1777 717 109 162
0 0 0 0 0 9 217 508 543 740 747 723 465 497 462 291 434 444 706 1092 1161 1059 925 808 1050 966 1052 1123 1220 2013 2172 1338 1002 1211 1932 1792 1189 1220 1280 1234 1162 1315 937 1551 1485 640 739 441 170
0 0 0 0 0 2 261 441 649 971 918 575 441 473 475 298 260 231 412 705 1057 1279 1282 1338 1459 1594 1663 1829 1488 1675 1444 1645 1555 1993 1945 1721 1382 1606 1429 1278 1197 1686 1640 1457 1530 1133 970 852 386
0 0 0 0 0 10 74 465 691 1034 1032 612 434 468 431 368 286 329 278 407 777 1054 1359 1597 1951 2039 1949 2031 2112 2180 2184 2030 1994 1691 1712 2075 1865 1784 1476 1458 1267 1741 2488 2105 1994 1507 1269 1075 486
0 0 0 0 0 0 52 302 496 1243 1167 660 412 479 471 470 498 535 461 538 648 1134 1332 1484 1837 2094 2293 2394 2416 2272 1649 1493 1439 1425 1827 2254 2606 2222 2195 1689 1552 1579 2204 2183 1832 1933 1537 1379 1123
0 0 0 0 0 0 7 55 848 1283 1142 788 487 491 612 650 630 694 766 787 817 870 1306 1708 1412 1679 2099 2120 2110 1825 1664 1802 1649 1562 1537 1789 2045 2048 1987 1712 1592 1561 1982 1948 2120 1918 1648 1527 1411
0 0 0 0 0 0 0 36 867 1059 1185 1064 944 841 781 964 1074 1210 1018 874 895 1104 1370 1675 1870 1751 2069 2305 2183 2138 2036 1986 1553 1423 1449 1581 2043 2134 2257 2085 2114 2504 2161 1993 1948 1879 1959 1808 1743
0 0 0 0 0 0 0 114 734 935 1264 1078 1207 1108 1039 1069 1218 1440 1533 1477 1423 1244 1468 1767 1813 1978 2197 2156 2348 1927 1769 1889 1852 1798 1629 1622 1916 2179 2501 2403 2635 3071 2572 2306 2097 2113 1896 1829 1526
0 0 0 0 0 0 0 21 528 926 1205 1173 1169 1352 1303 1202 1085 1223 1427 1541 1591 1769 1860 1764 1900 2132 2288 2103 1754 1555 1463 1745 1987 2103 2242 2367 2327 2327 2523 2484 2505 2644 2736 3031 2793 2865 2634 2165 1811
0 0 0 0 0 0 0 0 236 742 875 1124 1175 1219 1337 1390 1378 1275 1388 1420 1599 1760 1944 2136 2124 2227 2461 1795 1755 1487 1520 1647 2079 2430 2544 2671 2827 2868 2909 3098 2824 2618 2437 2505 3047 3139 2976 2237 3101
0 0 0 0 0 0 0 10 164 458 716 863 1062 1198 1180 1343 1446 1583 1602 1593 1571 1810 2204 2269 2601 2365 2450 2004 1931 2226 2296 2298 2260 2488 2614 2806 2985 2909 3274 3089 3807 3158 3379 2019 2723 3429 2742 2236 3380
0 0 0 0 0 0 0 31 1 51 427 708 877 1152 1236 1291 1326 1430 1547 1841 1833 1913 2090 2595 2928 2963 2732 2847 2581 2870 2689 2777 2329 2789 2631 2595 2871 2932 2866 2944 3219 3382 2742 2898 2431 2969 3633 3410 1955
0 0 0 0 0 0 0 0 46 30 54 150 419 816 1105 1298 1346 1399 1507 1533 1611 1807 2121 2539 3082 3473 3393 3365 3426 3117 3246 2799 2768 2959 3209 3516 3567 3361 3395 2897 2938 3747 3182 3133 2849 3049 2886 2375 2580
0 0 0 0 0 0 0 0 0 1 3 8 45 446 889 1156 1289 1322 1408 1587 1732 1635 1659 2079 2850 3522 3548 3530 3559 3680 3494 3463 3453 2961 3206 2621 2154 2189 2684 3240 3542 3709 3682 3309 3411 3737 3243 3014 2903
0 0 0 0 0 2 0 0 0 0 12 82 145 195 693 1030 1251 1376 1489 1633 1981 1959 1906 2019 2743 3419 3462 3358 3362 3591 3829 4050 4168 3939 2580 2702 1433 934 1775 2872 3295 2840 2665 2902 3405 3272 3256 3607 3230
0 0 0 0 0 5 0 0 0 26 124 322 436 347 611 875 1147 1343 1318 1722 2027 2145 2312 2290 2866 3519 3662 3483 3700 3954 4180 3914 3410 3099 3111 2972 2325 1363 2573 2255 2688 2272 2278 2362 2972 2685 3192 2999 3121
0 0 0 0 0 0 0 0 0 88 338 583 686 706 804 1149 1172 1478 1601 959 1612 2402 2743 2775 3133 3884 3777 3621 3892 4167 4349 4344 3409 3821 3568 1696 1557 968 894 1553 1867 2009 2057 2145 2383 1892 1895 2000 2684
0 0 0 0 0 0 0 0 0 0 78 839 1206 1310 1438 1557 1558 1906 1969 2205 2354 2717 3040 3175 3622 4077 3909 3827 3870 3929 3883 3503 2951 2241 1426 821 621 694 776 783 835 1063 1098 1009 1983 1291 1276 1880 1361
0 0 0 0 0 0 0 0 0 0 0 386 1118 1433 1564 1917 1942 2326 2013 2630 3225 3169 3364 3577 3731 3991 4149 3565 2992 2918 2373 1693 840 455 378 443 527 641 607 941 1122 692 840 963 1402 1558 1204 1366 1896
0 0 0 0 20 0 0 0 0 0 0 83 617 1483 1998 2201 2339 2591 1994 2897 3124 3096 3281 3328 3329 3269 2875 2546 2388 1811 966 395 166 260 292 323 290 229 177 397 777 740 865 1138 1026 917 651 748 1163

GFSSGP_con_mucape_147.txt.gz
CAPE
419 1218 1983 1633 1922 87 77 22 2 35 73 78 78 229 438 352 612 467 488 661 693 558 455 404 648 1236 1584 1769 2055 2391 2481 2394 2386 2632 2487 2557 2543 2505 2050 1898 1675 1712 1644 1765 1050 761 1036 1032 1058
1553 1568 1766 1927 297 89 47 20 0 0 0 13 229 136 266 375 392 417 676 594 710 752 735 552 911 1596 1417 2198 2110 2677 2642 2693 2652 2461 2211 2407 2103 2612 2316 1707 1834 1761 1356 883 951 1702 1902 1492 1183
1750 1480 1790 412 93 99 58 89 111 0 0 36 282 430 263 296 435 508 781 696 710 600 888 855 776 857 1412 2159 2230 2722 2739 2262 2109 2326 2746 2630 2359 2565 1874 1767 1600 1283 885 940 1124 1086 1153 1184 1279
1905 2197 1758 91 55 51 46 81 2 0 12 98 373 651 597 356 513 480 637 745 790 705 684 709 611 429 977 2337 2550 2575 2494 2715 2779 2781 2634 2478 2319 2039 1675 1830 1680 1183 1168 1247 1308 1114 1535 1521 1373
1528 1037 273 100 66 46 81 15 0 0 25 172 455 883 610 584 654 686 774 832 898 552 269 416 475 856 1412 2131 2777 2661 2220 2571 2419 2458 2238 2317 2016 1562 1216 1001 1541 1550 1544 1065 1475 1446 1290 993 938
1316 952 94 152 77 67 101 80 39 35 182 322 624 826 858 506 598 664 494 767 623 446 362 515 342 444 1286 1418 2020 2381 1684 2395 2791 2405 2279 1890 1816 1778 1755 1349 930 1411 1581 1561 1456 1161 1145 1020 850
768 156 297 134 67 62 93 84 41 11 0 75 358 765 813 536 627 604 431 793 648 223 149 331 251 188 107 45 1296 1516 1859 2076 2451 2250 2003 1701 1552 1752 1788 1652 1421 854 1214 1415 1328 1143 1003 903 685
550 269 108 118 71 80 89 69 121 130 308 273 498 646 976 720 736 572 611 995 859 432 770 386 376 250 216 657 343 603 2291 2384 1618 1373 1165 1688 1661 1260 1318 2055 2060 1664 1096 876 1033 1108 1004 822 642
297 119 34 37 108 113 150 42 324 392 92 144 378 745 706 934 711 756 843 657 671 833 845 456 138 245 401 454 15 358 1771 1581 1616 1314 1014 1449 628 1283 1021 1585 1458 1441 1316 1105 912 772 670 716 826
113 17 0 0 1 60 52 32 201 477 238 417 561 648 566 811 719 719 748 952 517 605 857 627 166 260 678 517 1490 2188 1143 882 814 1338 567 1303 1218 1186 529 1084 1297 1328 1251 1545 1483 1321 868 392 253
9 9 1 0 0 59 54 38 158 167 300 300 555 620 600 640 850 859 929 782 658 313 120 58 2 92 140 502 2103 2237 2302 1774 1028 1187 1026 1388 1046 1401 867 1453 1451 2192 1541 1396 1507 1802 1350 127 65
21 0 0 0 0 38 99 103 47 121 272 281 430 525 627 582 1043 667 682 721 450 621 626 379 309 529 260 271 927 2310 1893 1641 1743 1245 1356 1797 888 1297 1014 1559 884 2158 1552 1102 829 671 996 265 200
1 0 0 0 0 17 46 131 287 409 212 250 328 404 535 576 620 984 1030 816 787 832 783 1038 913 1317 1738 1986 1226 1624 2198 1779 2269 1796 1246 1332 1417 2568 1319 1229 1004 1328 1477 1452 1366 990 806 923 451
0 0 0 0 0 0 21 75 472 560 265 311 309 340 303 456 546 663 698 905 929 978 1085 990 1223 1467 1872 1804 1991 2932 1934 2111 2010 1785 2047 2198 1903 2793 1779 1434 1528 1619 2046 2013 2032 1736 1579 1380 724
0 0 2 0 0 0 3 59 552 705 379 386 416 344 278 330 381 493 670 792 895 1071 1078 1495 1553 1593 1764 2018 2176 2153 1829 1428 1342 1300 1774 2394 2399 2464 2338 1510 1420 1434 2277 2256 2694 2240 1755 1306 922
0 0 6 0 0 0 8 62 699 773 497 471 488 360 368 373 404 475 488 580 760 925 1204 1405 1332 1702 2043 2147 2193 1916 1552 1562 1447 1413 1468 1992 2330 2209 2103 1697 1769 1791 2164 2086 2270 2136 1806 1579 1191
0 41 0 0 0 0 14 71 494 723 627 563 630 517 438 474 527 667 655 716 759 977 1419 1588 1437 1499 1942 2210 2192 2310 2249 2127 1640 1361 1287 1434 1818 2023 2357 2009 1998 2694 2426 2283 2049 2613 2713 2500 2002
3 35 2 0 0 0 33 27 143 573 673 761 760 760 749 687 660 700 654 717 899 1107 1488 1822 1905 1913 2158 2193 2508 2331 2204 2272 2161 1938 1795 1651 1816 2100 2508 2378 3076 3126 3802 2306 2430 2953 2132 1979 1848
0 5 1 4 0 0 18 40 118 257 499 686 1013 1098 1040 1034 1027 1030 899 788 778 965 1453 1909 2073 3055 2649 2284 2036 1914 1899 2448 2345 2610 2507 2416 2392 2365 2652 2485 2303 2841 3594 3060 3482 2727 2971 2783 2963
0 0 8 0 0 0 2 33 110 140 352 395 742 1238 1187 1042 1174 1246 1284 1280 1282 1426 1628 1865 2322 3080 2985 2428 3114 2477 2012 1797 2315 3082 3235 2764 2859 2971 3060 3020 3215 3048 2908 3918 3169 3574 2974 2089 3170
0 2 4 0 0 0 2 10 43 108 175 478 545 844 1007 936 1049 1339 1425 1420 1392 1601 2063 2482 3023 3246 3356 3334 2556 2413 2667 2693 2564 2463 2962 3222 3201 3117 3207 2964 3343 3726 3845 2659 3240 3349 2983 2305 3002
3 0 0 0 0 2 0 20 2 44 116 249 554 746 912 809 906 1366 1556 1596 1557 1647 1967 2467 3280 3572 3149 3110 3432 4102 2822 3116 2426 2230 3452 3236 3114 3061 3011 3202 3393 3899 3798 3145 2673 3033 3160 3086 2288
0 0 0 0 0 6 5 1 28 32 61 143 163 564 759 951 727 1128 1593 1837 1779 1780 1934 2428 3926 4023 3852 3980 3798 3498 3670 2912 2059 1637 3047 4951 4203 3853 3240 2826 2905 3620 3827 3196 3384 3826 3964 3747 2930
0 0 0 0 0 6 5 0 74 62 34 31 105 243 574 791 809 725 1055 1605 1930 1935 2052 2409 4209 4705 4199 3956 4083 4235 3929 3449 2545 2416 1600 1281 821 621 3439 2102 2793 3010 3593 3534 3062 3859 3788 3490 3514
0 0 0 0 0 5 6 0 5 23 11 29 43 116 376 670 768 748 764 1088 1360 1456 1708 2256 3694 3922 4009 4020 3938 3959 4116 4251 3888 3443 1459 1218 919 701 3023 3519 3698 2633 3169 3497 3371 3431 3443 3595 3526
0 0 9 36 32 25 0 0 0 0 0 70 116 101 224 525 743 761 543 691 1026 1051 1609 1986 3030 3881 3996 3825 3963 4259 4318 3997 3500 3873 2307 1448 916 672 2265 1804 2236 2764 3034 3209 3094 1747 1902 2594 2598
0 0 1 1 0 2 18 0 0 0 0 110 184 55 218 477 682 891 695 511 750 951 1525 2189 3105 3890 4111 3983 4136 4661 4504 4424 4003 3646 3666 2326 1508 569 850 732 1117 1499 1660 2291 2843 1446 2154 2165 2234
0 0 0 0 16 8 26 0 9 0 0 175 408 423 260 593 654 860 972 651 745 857 1212 1926 2679 4007 4121 3815 3956 4191 4466 4514 4154 3696 2714 1074 732 723 611 595 570 1146 1403 1601 2001 1043 1005 1563 1136
0 0 0 7 12 41 33 56 1 0 0 9 291 751 816 908 978 981 1129 1150 703 975 1583 2294 2620 3772 3597 3473 3804 4377 3785 3388 3109 1873 893 707 663 675 735 1136 1247 1151 1195 1396 1818 2071 2087 1589 1784
0 0 0 0 0 0 0 24 0 0 0 0 0 262 917 1147 1131 1313 1657 1466 1966 1815 1984 2605 2956 3612 4108 4237 3646 3279 3000 2399 1167 805 665 534 621 566 711 1029 1129 1225 1218 1485 1740 1867 1472 1608 1516